Tracking 25620 objects as of 18-May-2022
HD Live streaming from Space Station
objects crossing your sky now

STARLINK-1192

Track STARLINK-1192 now!
10-day predictions
STARLINK-1192 is classified as:


NORAD ID: 45180
Int'l Code: 2020-012C
Perigee: 546.3 km
Apogee: 548.4 km
Inclination: 53.1 °
Period: 95.4 minutes
Semi major axis: 6918 km
RCS: Unknown
Launch date: February 17, 2020
Source: United States (US)
Launch site: AIR FORCE EASTERN TEST RANGE (AFETR)
aabbcc
Your satellite tracking list
Your tracking list is empty




NASA's NSSDC Master Catalog

Two Line Element Set (TLE):
1 45180U 20012C   22138.38322727  .00015852  00000-0  10161-2 0  9995
2 45180  53.0507 171.7422 0001554   1.0406 359.0587 15.08682837125148
Source of the keplerian elements: AFSPC